Time,TemperatureF,DewpointF,PressureIn,WindDirection,WindDirectionDegrees,WindSpeedMPH,WindSpeedGustMPH,Humidity,HourlyPrecipIn,Conditions,Clouds,dailyrainin,SoftwareType,DateUTC
2013-06-05 00:01:00,51.5,46.8,30.09,ENE,68,2.7,5.4,84,0.01,,,0.00,WUHU216HW,2013-06-05 05:01:00,
2013-06-05 00:06:00,51.3,46.6,30.08,ENE,68,3.8,6.3,84,0.01,,,0.00,WUHU216HW,2013-06-05 05:06:00,
2013-06-05 00:11:00,51.1,46.7,30.08,NE,45,6.3,6.9,85,0.01,,,0.00,WUHU216HW,2013-06-05 05:11:00,
2013-06-05 00:16:00,51.1,46.7,30.07,East,90,5.8,7.6,85,0.02,,,0.01,WUHU216HW,2013-06-05 05:16:00,
2013-06-05 00:21:00,50.9,46.8,30.07,East,90,7.4,7.6,86,0.02,,,0.01,WUHU216HW,2013-06-05 05:21:00,
2013-06-05 00:26:00,50.9,46.8,30.07,SE,135,6.3,7.6,86,0.02,,,0.01,WUHU216HW,2013-06-05 05:26:00,
2013-06-05 00:31:00,50.9,46.8,30.07,SE,135,5.4,8.5,86,0.02,,,0.01,WUHU216HW,2013-06-05 05:31:00,
2013-06-05 00:36:00,50.9,46.8,30.07,ENE,68,5.4,8.5,86,0.02,,,0.01,WUHU216HW,2013-06-05 05:36:00,
2013-06-05 00:41:00,50.8,46.6,30.06,ENE,68,4.7,7.6,86,0.02,,,0.01,WUHU216HW,2013-06-05 05:41:00,
2013-06-05 00:46:00,50.8,46.6,30.07,East,90,4.3,7.6,86,0.02,,,0.01,WUHU216HW,2013-06-05 05:46:00,
2013-06-05 00:51:00,50.8,46.6,30.06,ESE,113,6.5,10.3,86,0.01,,,0.01,WUHU216HW,2013-06-05 05:51:00,
2013-06-05 00:56:00,50.8,46.6,30.06,ESE,113,6.9,12.5,86,0.01,,,0.01,WUHU216HW,2013-06-05 05:56:00,
2013-06-05 01:01:00,50.8,46.6,30.05,ENE,68,9.2,12.5,86,0.01,,,0.01,WUHU216HW,2013-06-05 06:01:00,
2013-06-05 01:06:00,50.8,46.6,30.05,ENE,68,8.1,10.7,86,0.01,,,0.01,WUHU216HW,2013-06-05 06:06:00,
2013-06-05 01:11:00,50.8,46.6,30.05,East,90,6.5,10.7,86,0.00,,,0.01,WUHU216HW,2013-06-05 06:11:00,
2013-06-05 01:17:00,50.8,46.6,30.05,ESE,113,6.7,10.1,86,0.00,,,0.01,WUHU216HW,2013-06-05 06:17:00,
2013-06-05 01:22:00,50.8,46.6,30.05,ENE,68,7.6,8.5,86,0.00,,,0.01,WUHU216HW,2013-06-05 06:22:00,
2013-06-05 01:27:00,50.8,46.6,30.05,East,90,5.4,9.6,86,0.00,,,0.01,WUHU216HW,2013-06-05 06:27:00,
2013-06-05 01:32:00,50.8,46.6,30.05,ENE,68,7.2,9.6,86,0.00,,,0.01,WUHU216HW,2013-06-05 06:32:00,
2013-06-05 01:37:00,50.8,46.6,30.05,ENE,68,6.0,9.2,86,0.00,,,0.01,WUHU216HW,2013-06-05 06:37:00,
2013-06-05 01:42:00,50.9,46.8,30.05,East,90,4.0,8.7,86,0.00,,,0.01,WUHU216HW,2013-06-05 06:42:00,
2013-06-05 01:47:00,50.8,46.6,30.05,ENE,68,4.7,8.7,86,0.00,,,0.01,WUHU216HW,2013-06-05 06:47:00,
2013-06-05 01:52:00,50.8,46.6,30.05,ENE,68,5.6,7.4,86,0.00,,,0.01,WUHU216HW,2013-06-05 06:52:00,
2013-06-05 01:57:00,50.8,46.6,30.05,ENE,68,4.9,8.1,86,0.00,,,0.01,WUHU216HW,2013-06-05 06:57:00,
2013-06-05 02:02:00,50.8,46.6,30.06,NE,45,4.3,8.1,86,0.00,,,0.01,WUHU216HW,2013-06-05 07:02:00,
2013-06-05 02:07:00,50.6,46.4,30.06,ENE,68,3.1,6.5,86,0.00,,,0.01,WUHU216HW,2013-06-05 07:07:00,
2013-06-05 02:12:00,50.4,46.3,30.06,North,0,0.7,5.8,86,0.00,,,0.01,WUHU216HW,2013-06-05 07:12:00,
2013-06-05 02:17:00,50.4,46.3,30.06,NNE,23,0.0,3.1,86,0.00,,,0.01,WUHU216HW,2013-06-05 07:17:00,
2013-06-05 02:22:00,50.0,45.6,30.06,NNE,23,1.1,2.7,85,0.00,,,0.01,WUHU216HW,2013-06-05 07:22:00,
2013-06-05 02:27:00,50.0,45.9,30.06,NNE,23,2.5,2.5,86,0.00,,,0.01,WUHU216HW,2013-06-05 07:27:00,
2013-06-05 02:32:00,50.0,45.9,30.06,NNE,23,2.5,3.4,86,0.00,,,0.01,WUHU216HW,2013-06-05 07:32:00,
2013-06-05 02:37:00,50.0,46.3,30.06,NNE,23,3.1,3.8,87,0.00,,,0.01,WUHU216HW,2013-06-05 07:37:00,
2013-06-05 02:42:00,50.0,46.3,30.05,NNE,23,4.0,4.5,87,0.00,,,0.01,WUHU216HW,2013-06-05 07:42:00,
2013-06-05 02:46:00,50.0,46.3,30.05,NE,45,3.4,4.5,87,0.00,,,0.01,WUHU216HW,2013-06-05 07:46:00,
2013-06-05 02:52:00,50.0,46.3,30.05,NE,45,2.9,4.9,87,0.00,,,0.01,WUHU216HW,2013-06-05 07:52:00,
2013-06-05 02:57:00,50.0,46.5,30.05,NE,45,4.7,4.9,88,0.00,,,0.01,WUHU216HW,2013-06-05 07:57:00,
2013-06-05 03:02:00,50.0,46.5,30.04,NNE,23,3.4,4.7,88,0.00,,,0.01,WUHU216HW,2013-06-05 08:02:00,
2013-06-05 03:07:00,50.0,46.5,30.05,NE,45,3.4,4.9,88,0.00,,,0.01,WUHU216HW,2013-06-05 08:07:00,
2013-06-05 03:12:00,49.9,46.4,30.05,NNE,23,2.9,4.9,88,0.00,,,0.01,WUHU216HW,2013-06-05 08:12:00,
2013-06-05 03:17:00,49.9,46.7,30.04,NNE,23,5.4,5.8,89,0.00,,,0.01,WUHU216HW,2013-06-05 08:17:00,
2013-06-05 03:22:00,50.0,46.9,30.04,NNE,23,4.0,5.8,89,0.00,,,0.01,WUHU216HW,2013-06-05 08:22:00,
2013-06-05 03:27:00,50.0,46.9,30.04,NE,45,2.9,5.4,89,0.00,,,0.01,WUHU216HW,2013-06-05 08:27:00,
2013-06-05 03:32:00,50.0,46.9,30.04,NE,45,4.3,5.4,89,0.00,,,0.01,WUHU216HW,2013-06-05 08:32:00,
2013-06-05 03:37:00,50.0,46.5,30.05,NE,45,2.5,4.7,88,0.00,,,0.01,WUHU216HW,2013-06-05 08:37:00,
2013-06-05 03:41:00,50.2,46.7,30.04,East,90,4.3,5.1,88,0.00,,,0.01,WUHU216HW,2013-06-05 08:41:00,
2013-06-05 03:46:00,50.4,46.9,30.04,NE,45,4.5,5.1,88,0.00,,,0.01,WUHU216HW,2013-06-05 08:46:00,
2013-06-05 03:51:00,50.4,46.9,30.04,NE,45,4.7,6.3,88,0.00,,,0.01,WUHU216HW,2013-06-05 08:51:00,
2013-06-05 03:56:00,50.8,47.3,30.03,ENE,68,5.4,6.3,88,0.00,,,0.01,WUHU216HW,2013-06-05 08:56:00,
2013-06-05 04:01:00,50.8,47.6,30.03,NE,45,4.5,6.0,89,0.00,,,0.01,WUHU216HW,2013-06-05 09:01:00,
2013-06-05 04:06:00,50.8,47.6,30.03,NE,45,3.6,5.6,89,0.00,,,0.01,WUHU216HW,2013-06-05 09:06:00,
2013-06-05 04:11:00,50.9,47.8,30.03,NE,45,4.0,6.7,89,0.00,,,0.01,WUHU216HW,2013-06-05 09:11:00,
2013-06-05 04:16:00,50.9,47.8,30.03,ENE,68,4.7,6.7,89,0.00,,,0.01,WUHU216HW,2013-06-05 09:16:00,
2013-06-05 04:21:00,51.1,48.0,30.03,ENE,68,5.1,7.4,89,0.00,,,0.01,WUHU216HW,2013-06-05 09:21:00,
2013-06-05 04:26:00,51.1,48.0,30.03,NE,45,6.3,8.5,89,0.00,,,0.01,WUHU216HW,2013-06-05 09:26:00,
2013-06-05 04:31:00,51.1,47.6,30.03,NE,45,4.9,8.5,88,0.00,,,0.01,WUHU216HW,2013-06-05 09:31:00,
2013-06-05 04:36:00,51.1,47.6,30.02,ENE,68,5.8,7.8,88,0.00,,,0.01,WUHU216HW,2013-06-05 09:36:00,
2013-06-05 04:42:00,51.1,47.6,30.02,ENE,68,4.9,7.8,88,0.00,,,0.01,WUHU216HW,2013-06-05 09:42:00,
2013-06-05 04:47:00,51.1,47.6,30.02,ENE,68,7.2,8.3,88,0.00,,,0.01,WUHU216HW,2013-06-05 09:47:00,
2013-06-05 04:52:00,51.1,47.4,30.02,ENE,68,5.8,8.3,87,0.00,,,0.01,WUHU216HW,2013-06-05 09:52:00,
2013-06-05 04:57:00,51.3,47.5,30.02,ENE,68,7.2,8.7,87,0.00,,,0.01,WUHU216HW,2013-06-05 09:57:00,
2013-06-05 05:02:00,51.3,47.5,30.02,ENE,68,5.4,8.7,87,0.00,,,0.01,WUHU216HW,2013-06-05 10:02:00,
2013-06-05 05:07:00,51.3,47.5,30.02,ENE,68,7.6,7.8,87,0.00,,,0.01,WUHU216HW,2013-06-05 10:07:00,
2013-06-05 05:12:00,51.3,47.5,30.02,East,90,5.1,7.8,87,0.00,,,0.01,WUHU216HW,2013-06-05 10:12:00,
2013-06-05 05:17:00,51.5,47.7,30.02,ENE,68,5.6,7.8,87,0.00,,,0.01,WUHU216HW,2013-06-05 10:17:00,
2013-06-05 05:22:00,51.5,47.7,30.02,ENE,68,4.7,8.5,87,0.00,,,0.01,WUHU216HW,2013-06-05 10:22:00,
2013-06-05 05:27:00,51.5,47.7,30.02,ENE,68,9.2,9.2,87,0.00,,,0.01,WUHU216HW,2013-06-05 10:27:00,
2013-06-05 05:32:00,51.7,47.9,30.02,ENE,68,6.9,9.2,87,0.00,,,0.01,WUHU216HW,2013-06-05 10:32:00,
2013-06-05 05:37:00,51.5,47.7,30.02,ENE,68,4.3,8.5,87,0.00,,,0.01,WUHU216HW,2013-06-05 10:37:00,
2013-06-05 05:42:00,51.5,47.7,30.02,ENE,68,4.3,7.8,87,0.00,,,0.01,WUHU216HW,2013-06-05 10:42:00,
2013-06-05 05:47:00,51.7,47.9,30.02,ESE,113,5.1,7.8,87,0.00,,,0.01,WUHU216HW,2013-06-05 10:47:00,
2013-06-05 05:52:00,51.7,47.9,30.02,ENE,68,2.5,6.9,87,0.00,,,0.01,WUHU216HW,2013-06-05 10:52:00,
2013-06-05 05:57:00,51.8,48.1,30.02,ESE,113,4.9,6.7,87,0.00,,,0.01,WUHU216HW,2013-06-05 10:57:00,
2013-06-05 06:02:00,51.8,47.7,30.02,ENE,68,5.1,6.9,86,0.00,,,0.01,WUHU216HW,2013-06-05 11:02:00,
2013-06-05 06:07:00,52.0,47.9,30.03,ENE,68,2.0,6.9,86,0.00,,,0.01,WUHU216HW,2013-06-05 11:07:00,
2013-06-05 06:12:00,52.0,47.9,30.02,East,90,5.8,6.7,86,0.00,,,0.01,WUHU216HW,2013-06-05 11:12:00,
2013-06-05 06:17:00,52.2,48.1,30.02,ENE,68,4.9,7.6,86,0.00,,,0.01,WUHU216HW,2013-06-05 11:17:00,
2013-06-05 06:22:00,52.2,48.1,30.02,ENE,68,4.7,7.6,86,0.00,,,0.01,WUHU216HW,2013-06-05 11:22:00,
2013-06-05 06:27:00,52.4,48.0,30.02,ENE,68,7.2,8.7,85,0.00,,,0.01,WUHU216HW,2013-06-05 11:27:00,
2013-06-05 06:32:00,52.6,48.2,30.02,ENE,68,4.7,8.7,85,0.00,,,0.01,WUHU216HW,2013-06-05 11:32:00,
2013-06-05 06:37:00,52.6,47.9,30.01,East,90,5.4,9.2,84,0.00,,,0.01,WUHU216HW,2013-06-05 11:37:00,
2013-06-05 06:42:00,52.7,48.3,30.01,East,90,3.8,9.2,85,0.00,,,0.01,WUHU216HW,2013-06-05 11:42:00,
2013-06-05 06:47:00,52.9,48.3,30.01,ESE,113,4.3,9.6,84,0.00,,,0.01,WUHU216HW,2013-06-05 11:47:00,
2013-06-05 06:52:00,53.1,48.4,30.01,ESE,113,2.7,9.6,84,0.00,,,0.01,WUHU216HW,2013-06-05 11:52:00,
2013-06-05 06:57:00,52.9,48.3,30.02,East,90,5.8,6.5,84,0.00,,,0.01,WUHU216HW,2013-06-05 11:57:00,
2013-06-05 07:02:00,52.9,48.3,30.02,ENE,68,5.6,7.4,84,0.00,,,0.01,WUHU216HW,2013-06-05 12:02:00,
2013-06-05 07:07:00,52.9,48.5,30.01,ESE,113,6.0,7.4,85,0.00,,,0.01,WUHU216HW,2013-06-05 12:07:00,
2013-06-05 07:12:00,52.9,48.5,30.01,East,90,2.9,7.2,85,0.00,,,0.01,WUHU216HW,2013-06-05 12:12:00,
2013-06-05 07:17:00,52.7,48.3,30.01,ESE,113,6.3,6.3,85,0.00,,,0.01,WUHU216HW,2013-06-05 12:17:00,
2013-06-05 07:22:00,52.9,48.3,30.01,ENE,68,6.3,8.7,84,0.00,,,0.01,WUHU216HW,2013-06-05 12:22:00,
2013-06-05 07:27:00,52.9,48.5,30.01,ENE,68,4.7,8.7,85,0.01,,,0.02,WUHU216HW,2013-06-05 12:27:00,
2013-06-05 07:32:00,52.9,48.8,30.01,East,90,6.3,8.3,86,0.01,,,0.02,WUHU216HW,2013-06-05 12:32:00,
2013-06-05 07:37:00,52.9,48.8,30.01,ENE,68,5.4,8.1,86,0.01,,,0.02,WUHU216HW,2013-06-05 12:37:00,
2013-06-05 07:42:00,52.9,48.8,30.01,ENE,68,5.4,8.1,86,0.01,,,0.02,WUHU216HW,2013-06-05 12:42:00,
2013-06-05 07:47:00,52.9,48.8,30.01,East,90,5.1,6.9,86,0.01,,,0.02,WUHU216HW,2013-06-05 12:47:00,
2013-06-05 07:52:00,52.9,48.8,30.00,East,90,9.6,9.6,86,0.01,,,0.02,WUHU216HW,2013-06-05 12:52:00,
2013-06-05 07:57:00,52.9,49.2,29.99,NE,45,7.6,9.6,87,0.01,,,0.02,WUHU216HW,2013-06-05 12:57:00,
2013-06-05 08:02:00,52.9,49.2,29.99,East,90,5.8,8.7,87,0.02,,,0.03,WUHU216HW,2013-06-05 13:02:00,
2013-06-05 08:07:00,52.9,49.4,30.00,ESE,113,5.4,8.9,88,0.02,,,0.03,WUHU216HW,2013-06-05 13:07:00,
2013-06-05 08:12:00,53.3,49.1,30.00,ESE,113,4.0,8.9,86,0.02,,,0.03,WUHU216HW,2013-06-05 13:12:00,
2013-06-05 08:17:00,53.5,49.3,30.00,ENE,68,7.4,8.5,86,0.02,,,0.03,WUHU216HW,2013-06-05 13:17:00,
2013-06-05 08:22:00,53.6,49.5,30.00,ESE,113,5.1,8.1,86,0.02,,,0.03,WUHU216HW,2013-06-05 13:22:00,
2013-06-05 08:27:00,53.6,49.5,30.00,East,90,4.7,8.5,86,0.01,,,0.03,WUHU216HW,2013-06-05 13:27:00,
2013-06-05 08:32:00,53.6,49.5,30.00,East,90,2.0,8.5,86,0.01,,,0.03,WUHU216HW,2013-06-05 13:32:00,
2013-06-05 08:37:00,53.6,49.5,30.00,ESE,113,4.0,7.6,86,0.02,,,0.04,WUHU216HW,2013-06-05 13:37:00,
2013-06-05 08:42:00,53.6,49.5,30.00,East,90,3.4,5.4,86,0.02,,,0.04,WUHU216HW,2013-06-05 13:42:00,
2013-06-05 08:47:00,53.8,49.7,30.01,ESE,113,2.9,5.4,86,0.02,,,0.04,WUHU216HW,2013-06-05 13:47:00,
2013-06-05 08:52:00,54.0,49.9,30.01,East,90,3.1,4.7,86,0.02,,,0.04,WUHU216HW,2013-06-05 13:52:00,
2013-06-05 08:57:00,53.8,49.7,30.01,NE,45,3.1,4.7,86,0.02,,,0.04,WUHU216HW,2013-06-05 13:57:00,
2013-06-05 09:02:00,53.8,49.7,30.01,ESE,113,3.1,4.7,86,0.01,,,0.04,WUHU216HW,2013-06-05 14:02:00,
2013-06-05 09:07:00,54.0,50.2,30.01,NNE,23,3.4,3.8,87,0.01,,,0.04,WUHU216HW,2013-06-05 14:07:00,
2013-06-05 09:12:00,54.0,49.9,30.01,East,90,3.6,6.3,86,0.01,,,0.04,WUHU216HW,2013-06-05 14:12:00,
2013-06-05 09:17:00,54.0,49.9,30.01,NNE,23,4.0,6.3,86,0.01,,,0.04,WUHU216HW,2013-06-05 14:17:00,
2013-06-05 09:22:00,54.4,50.2,30.01,NNE,23,3.6,6.3,86,0.01,,,0.04,WUHU216HW,2013-06-05 14:22:00,
2013-06-05 09:27:00,54.4,50.2,30.01,North,0,2.5,4.7,86,0.01,,,0.04,WUHU216HW,2013-06-05 14:27:00,
2013-06-05 09:32:00,54.4,50.2,30.01,NNE,23,3.4,4.5,86,0.02,,,0.05,WUHU216HW,2013-06-05 14:32:00,
2013-06-05 09:37:00,54.4,50.2,30.01,ENE,68,4.0,4.9,86,0.01,,,0.05,WUHU216HW,2013-06-05 14:37:00,
2013-06-05 09:42:00,54.5,50.4,30.02,ESE,113,1.6,4.9,86,0.01,,,0.05,WUHU216HW,2013-06-05 14:42:00,
2013-06-05 09:47:00,54.7,50.6,30.02,East,90,2.5,4.0,86,0.01,,,0.05,WUHU216HW,2013-06-05 14:47:00,
2013-06-05 09:52:00,54.9,50.8,30.02,ESE,113,1.8,3.6,86,0.01,,,0.05,WUHU216HW,2013-06-05 14:52:00,
2013-06-05 09:57:00,54.9,50.8,30.02,ESE,113,1.3,3.6,86,0.01,,,0.05,WUHU216HW,2013-06-05 14:57:00,
2013-06-05 10:02:00,55.1,51.0,30.02,ENE,68,2.5,2.9,86,0.01,,,0.05,WUHU216HW,2013-06-05 15:02:00,
2013-06-05 10:07:00,55.1,51.0,30.02,East,90,2.9,3.1,86,0.01,,,0.05,WUHU216HW,2013-06-05 15:07:00,
2013-06-05 10:12:00,55.1,51.0,30.01,NE,45,2.9,4.5,86,0.01,,,0.05,WUHU216HW,2013-06-05 15:12:00,
2013-06-05 10:17:00,54.7,50.9,30.01,NE,45,2.2,4.5,87,0.01,,,0.05,WUHU216HW,2013-06-05 15:17:00,
2013-06-05 10:22:00,54.7,51.2,30.02,North,0,2.9,3.8,88,0.01,,,0.05,WUHU216HW,2013-06-05 15:22:00,
2013-06-05 10:27:00,54.7,51.2,30.01,ENE,68,4.0,4.0,88,0.02,,,0.06,WUHU216HW,2013-06-05 15:27:00,
2013-06-05 10:32:00,54.9,51.4,30.01,East,90,4.0,5.4,88,0.01,,,0.06,WUHU216HW,2013-06-05 15:32:00,
2013-06-05 10:37:00,54.9,51.4,29.99,ESE,113,6.9,8.1,88,0.01,,,0.06,WUHU216HW,2013-06-05 15:37:00,
2013-06-05 10:42:00,54.7,51.2,29.96,East,90,13.4,13.4,88,0.01,,,0.06,WUHU216HW,2013-06-05 15:42:00,
2013-06-05 10:47:00,54.7,51.5,29.96,ESE,113,8.7,15.0,89,0.01,,,0.06,WUHU216HW,2013-06-05 15:47:00,
2013-06-05 10:52:00,54.7,51.5,29.99,ESE,113,6.3,15.0,89,0.01,,,0.06,WUHU216HW,2013-06-05 15:52:00,
2013-06-05 10:57:00,55.1,51.6,30.01,NW,315,1.6,13.4,88,0.01,,,0.06,WUHU216HW,2013-06-05 15:57:00,
2013-06-05 11:02:00,55.6,51.8,30.00,NNE,23,2.2,7.6,87,0.02,,,0.07,WUHU216HW,2013-06-05 16:02:00,
2013-06-05 11:07:00,56.0,52.1,30.00,NNW,338,1.8,4.9,87,0.02,,,0.07,WUHU216HW,2013-06-05 16:07:00,
2013-06-05 11:12:00,56.3,52.2,30.00,North,0,3.4,4.9,86,0.02,,,0.07,WUHU216HW,2013-06-05 16:12:00,
2013-06-05 11:17:00,56.5,52.4,30.00,NNE,23,2.2,4.3,86,0.02,,,0.07,WUHU216HW,2013-06-05 16:17:00,
2013-06-05 11:22:00,56.7,51.8,29.99,North,0,5.1,5.8,84,0.02,,,0.07,WUHU216HW,2013-06-05 16:22:00,
2013-06-05 11:27:00,56.7,52.2,30.00,North,0,4.5,6.3,85,0.01,,,0.07,WUHU216HW,2013-06-05 16:27:00,
2013-06-05 11:32:00,56.9,52.8,30.00,North,0,1.8,6.3,86,0.02,,,0.08,WUHU216HW,2013-06-05 16:32:00,
2013-06-05 11:37:00,57.2,52.7,30.00,NE,45,4.7,5.6,85,0.02,,,0.08,WUHU216HW,2013-06-05 16:37:00,
2013-06-05 11:42:00,57.6,53.5,29.99,NE,45,7.2,7.6,86,0.02,,,0.08,WUHU216HW,2013-06-05 16:42:00,
2013-06-05 11:47:00,57.6,53.1,29.99,NE,45,6.9,8.7,85,0.02,,,0.08,WUHU216HW,2013-06-05 16:47:00,
2013-06-05 11:52:00,57.2,52.7,29.99,NE,45,6.9,9.6,85,0.02,,,0.08,WUHU216HW,2013-06-05 16:52:00,
2013-06-05 11:57:00,57.2,52.4,29.98,ENE,68,8.5,11.9,84,0.03,,,0.09,WUHU216HW,2013-06-05 16:57:00,
2013-06-05 12:02:00,57.2,52.7,29.98,NNE,23,3.4,11.9,85,0.02,,,0.09,WUHU216HW,2013-06-05 17:02:00,
2013-06-05 12:07:00,57.4,52.9,29.99,NNE,23,5.8,9.8,85,0.02,,,0.09,WUHU216HW,2013-06-05 17:07:00,
2013-06-05 12:12:00,57.6,52.7,29.98,ENE,68,7.6,9.4,84,0.02,,,0.09,WUHU216HW,2013-06-05 17:12:00,
2013-06-05 12:17:00,57.6,53.1,29.98,NE,45,7.4,9.6,85,0.02,,,0.09,WUHU216HW,2013-06-05 17:17:00,
2013-06-05 12:22:00,57.8,53.3,29.98,ENE,68,6.9,9.6,85,0.02,,,0.09,WUHU216HW,2013-06-05 17:22:00,
2013-06-05 12:27:00,58.0,53.5,29.97,East,90,4.0,9.2,85,0.03,,,0.10,WUHU216HW,2013-06-05 17:27:00,
2013-06-05 12:32:00,58.7,53.8,29.96,ENE,68,8.5,9.2,84,0.02,,,0.10,WUHU216HW,2013-06-05 17:32:00,
2013-06-05 12:37:00,59.0,54.2,29.96,NE,45,7.6,10.3,84,0.02,,,0.10,WUHU216HW,2013-06-05 17:37:00,
2013-06-05 12:42:00,59.9,54.8,29.96,ESE,113,5.8,12.8,83,0.02,,,0.10,WUHU216HW,2013-06-05 17:42:00,
2013-06-05 12:47:00,60.8,55.4,29.96,East,90,12.3,12.8,82,0.02,,,0.10,WUHU216HW,2013-06-05 17:47:00,
2013-06-05 12:52:00,61.6,55.0,29.96,ESE,113,9.2,15.0,79,0.01,,,0.10,WUHU216HW,2013-06-05 17:52:00,
2013-06-05 12:57:00,62.1,54.8,29.97,ESE,113,8.9,15.0,77,0.02,,,0.11,WUHU216HW,2013-06-05 17:57:00,
2013-06-05 13:02:00,62.6,55.3,29.97,ESE,113,5.4,11.4,77,0.02,,,0.11,WUHU216HW,2013-06-05 18:02:00,
2013-06-05 13:07:00,63.2,55.1,29.97,SE,135,8.7,11.6,75,0.02,,,0.11,WUHU216HW,2013-06-05 18:07:00,
2013-06-05 13:12:00,63.4,54.9,29.97,SE,135,7.4,12.8,74,0.02,,,0.11,WUHU216HW,2013-06-05 18:12:00,
2013-06-05 13:17:00,63.2,55.1,29.97,SE,135,8.5,12.8,75,0.02,,,0.11,WUHU216HW,2013-06-05 18:17:00,
2013-06-05 13:22:00,63.4,55.3,29.97,ESE,113,8.7,12.5,75,0.02,,,0.11,WUHU216HW,2013-06-05 18:22:00,
2013-06-05 13:27:00,63.5,55.1,29.97,SSE,158,6.3,12.5,74,0.01,,,0.11,WUHU216HW,2013-06-05 18:27:00,
2013-06-05 13:32:00,63.7,55.3,29.98,ESE,113,8.5,11.0,74,0.02,,,0.12,WUHU216HW,2013-06-05 18:32:00,
2013-06-05 13:37:00,64.3,55.4,29.97,ESE,113,4.3,12.1,73,0.02,,,0.12,WUHU216HW,2013-06-05 18:37:00,
2013-06-05 13:42:00,65.0,56.2,29.97,SSE,158,4.0,12.1,73,0.02,,,0.12,WUHU216HW,2013-06-05 18:42:00,
2013-06-05 13:47:00,65.9,57.0,29.97,ESE,113,4.3,6.0,73,0.02,,,0.12,WUHU216HW,2013-06-05 18:47:00,
2013-06-05 13:52:00,65.9,55.8,29.96,East,90,1.8,6.0,70,0.01,,,0.12,WUHU216HW,2013-06-05 18:52:00,
2013-06-05 13:57:00,66.1,56.0,29.96,SSE,158,3.8,6.0,70,0.01,,,0.12,WUHU216HW,2013-06-05 18:57:00,
2013-06-05 14:02:00,67.0,56.1,29.96,NE,45,2.0,5.8,68,0.01,,,0.12,WUHU216HW,2013-06-05 19:02:00,
2013-06-05 14:07:00,67.3,56.4,29.96,ESE,113,2.9,6.5,68,0.01,,,0.12,WUHU216HW,2013-06-05 19:07:00,
2013-06-05 14:12:00,67.7,56.7,29.96,ENE,68,5.6,6.9,68,0.01,,,0.12,WUHU216HW,2013-06-05 19:12:00,
2013-06-05 14:17:00,67.1,56.3,29.96,ENE,68,3.1,6.9,68,0.01,,,0.12,WUHU216HW,2013-06-05 19:17:00,
2013-06-05 14:22:00,66.6,55.7,29.95,ENE,68,5.1,7.6,68,0.01,,,0.12,WUHU216HW,2013-06-05 19:22:00,
2013-06-05 14:27:00,66.2,56.2,29.95,ESE,113,3.4,8.1,70,0.01,,,0.12,WUHU216HW,2013-06-05 19:27:00,
2013-06-05 14:32:00,66.4,56.3,29.94,ESE,113,4.3,8.1,70,0.00,,,0.12,WUHU216HW,2013-06-05 19:32:00,
2013-06-05 14:37:00,67.3,57.2,29.94,SE,135,4.9,8.1,70,0.00,,,0.12,WUHU216HW,2013-06-05 19:37:00,
2013-06-05 14:42:00,67.7,56.4,29.94,East,90,4.7,5.8,67,0.00,,,0.12,WUHU216HW,2013-06-05 19:42:00,
2013-06-05 14:47:00,67.3,56.0,29.94,SE,135,6.7,10.1,67,0.00,,,0.12,WUHU216HW,2013-06-05 19:47:00,
2013-06-05 14:52:00,67.5,56.2,29.94,SE,135,4.5,10.1,67,0.00,,,0.12,WUHU216HW,2013-06-05 19:52:00,
2013-06-05 14:57:00,68.0,56.7,29.94,SE,135,4.7,8.1,67,0.00,,,0.12,WUHU216HW,2013-06-05 19:57:00,
2013-06-05 15:02:00,68.6,55.9,29.94,ESE,113,6.3,10.5,64,0.00,,,0.12,WUHU216HW,2013-06-05 20:02:00,
2013-06-05 15:07:00,68.8,56.5,29.94,SE,135,7.2,10.5,65,0.00,,,0.12,WUHU216HW,2013-06-05 20:07:00,
2013-06-05 15:12:00,69.1,56.0,29.95,SE,135,8.3,11.2,63,0.00,,,0.12,WUHU216HW,2013-06-05 20:12:00,
2013-06-05 15:17:00,69.1,55.5,29.95,SE,135,4.7,11.2,62,0.00,,,0.12,WUHU216HW,2013-06-05 20:17:00,
2013-06-05 15:22:00,68.8,55.6,29.94,SSE,158,6.3,9.8,63,0.00,,,0.12,WUHU216HW,2013-06-05 20:22:00,
2013-06-05 15:27:00,68.8,56.1,29.94,SE,135,2.7,7.6,64,0.00,,,0.12,WUHU216HW,2013-06-05 20:27:00,
2013-06-05 15:32:00,68.8,55.6,29.95,SSE,158,5.8,7.6,63,0.00,,,0.12,WUHU216HW,2013-06-05 20:32:00,
2013-06-05 15:37:00,68.2,55.5,29.95,SE,135,4.9,9.2,64,0.00,,,0.12,WUHU216HW,2013-06-05 20:37:00,
2013-06-05 15:42:00,68.0,55.4,29.95,ESE,113,3.1,9.2,64,0.00,,,0.12,WUHU216HW,2013-06-05 20:42:00,
2013-06-05 15:47:00,67.9,55.2,29.94,ESE,113,6.9,7.6,64,0.00,,,0.12,WUHU216HW,2013-06-05 20:47:00,
2013-06-05 15:52:00,67.3,55.1,29.95,SSE,158,5.4,7.6,65,0.00,,,0.12,WUHU216HW,2013-06-05 20:52:00,
2013-06-05 15:57:00,67.0,54.8,29.95,SE,135,4.0,7.2,65,0.00,,,0.12,WUHU216HW,2013-06-05 20:57:00,
2013-06-05 16:02:00,66.6,54.8,29.95,ESE,113,3.6,6.0,66,0.00,,,0.12,WUHU216HW,2013-06-05 21:02:00,
2013-06-05 16:07:00,66.4,54.7,29.95,ESE,113,3.6,5.4,66,0.00,,,0.12,WUHU216HW,2013-06-05 21:07:00,
2013-06-05 16:11:00,66.2,54.9,29.95,SE,135,4.0,5.4,67,0.00,,,0.12,WUHU216HW,2013-06-05 21:11:00,
2013-06-05 16:16:00,66.1,55.2,29.95,East,90,4.0,5.4,68,0.00,,,0.12,WUHU216HW,2013-06-05 21:16:00,
2013-06-05 16:21:00,66.1,55.6,29.95,SE,135,4.0,5.4,69,0.00,,,0.12,WUHU216HW,2013-06-05 21:21:00,
2013-06-05 16:27:00,66.1,55.6,29.94,ESE,113,3.4,5.4,69,0.00,,,0.12,WUHU216HW,2013-06-05 21:27:00,
2013-06-05 16:32:00,66.2,56.2,29.94,ESE,113,5.1,5.8,70,0.00,,,0.12,WUHU216HW,2013-06-05 21:32:00,
2013-06-05 16:37:00,66.4,56.3,29.94,SE,135,4.7,5.8,70,0.00,,,0.12,WUHU216HW,2013-06-05 21:37:00,
2013-06-05 16:42:00,66.2,55.7,29.94,SE,135,4.3,5.8,69,0.00,,,0.12,WUHU216HW,2013-06-05 21:42:00,
2013-06-05 16:47:00,66.1,56.0,29.94,SE,135,5.4,6.7,70,0.00,,,0.12,WUHU216HW,2013-06-05 21:47:00,
2013-06-05 16:52:00,65.9,56.3,29.94,SE,135,4.3,7.6,71,0.00,,,0.12,WUHU216HW,2013-06-05 21:52:00,
2013-06-05 16:57:00,66.1,56.8,29.93,ESE,113,5.4,7.8,72,0.00,,,0.12,WUHU216HW,2013-06-05 21:57:00,
2013-06-05 17:02:00,66.2,56.5,29.93,SE,135,2.9,7.8,71,0.00,,,0.12,WUHU216HW,2013-06-05 22:02:00,
2013-06-05 17:07:00,66.1,56.8,29.93,ENE,68,3.8,6.7,72,0.00,,,0.12,WUHU216HW,2013-06-05 22:07:00,
2013-06-05 17:12:00,65.7,56.8,29.93,SE,135,6.3,7.2,73,0.00,,,0.12,WUHU216HW,2013-06-05 22:12:00,
2013-06-05 17:17:00,65.2,56.3,29.93,ESE,113,4.7,7.6,73,0.00,,,0.12,WUHU216HW,2013-06-05 22:17:00,
2013-06-05 17:22:00,65.2,56.7,29.93,ESE,113,7.4,7.6,74,0.00,,,0.12,WUHU216HW,2013-06-05 22:22:00,
2013-06-05 17:27:00,65.0,56.2,29.93,SE,135,6.3,9.2,73,0.00,,,0.12,WUHU216HW,2013-06-05 22:27:00,
2013-06-05 17:32:00,64.8,56.0,29.93,SE,135,7.4,9.6,73,0.00,,,0.12,WUHU216HW,2013-06-05 22:32:00,
2013-06-05 17:37:00,64.4,56.0,29.93,SE,135,7.6,9.6,74,0.00,,,0.12,WUHU216HW,2013-06-05 22:37:00,
2013-06-05 17:42:00,64.3,55.8,29.92,ESE,113,4.0,8.5,74,0.01,,,0.13,WUHU216HW,2013-06-05 22:42:00,
2013-06-05 17:47:00,64.1,55.6,29.93,SE,135,4.7,7.8,74,0.01,,,0.13,WUHU216HW,2013-06-05 22:47:00,
2013-06-05 17:52:00,63.7,55.6,29.93,ESE,113,4.5,8.3,75,0.01,,,0.13,WUHU216HW,2013-06-05 22:52:00,
2013-06-05 17:57:00,63.4,55.6,29.93,ESE,113,3.8,8.3,76,0.01,,,0.13,WUHU216HW,2013-06-05 22:57:00,
2013-06-05 18:02:00,63.2,55.4,29.93,ESE,113,5.4,7.2,76,0.01,,,0.13,WUHU216HW,2013-06-05 23:02:00,
2013-06-05 18:07:00,62.8,55.1,29.93,ESE,113,6.3,7.2,76,0.01,,,0.13,WUHU216HW,2013-06-05 23:07:00,
2013-06-05 18:12:00,62.6,54.2,29.93,East,90,8.5,8.5,74,0.01,,,0.13,WUHU216HW,2013-06-05 23:12:00,
2013-06-05 18:17:00,62.1,54.5,29.92,ESE,113,4.7,10.3,76,0.01,,,0.13,WUHU216HW,2013-06-05 23:17:00,
2013-06-05 18:22:00,61.6,53.9,29.91,ESE,113,5.6,10.3,76,0.01,,,0.13,WUHU216HW,2013-06-05 23:22:00,
2013-06-05 18:27:00,61.4,54.5,29.91,SE,135,5.8,8.7,78,0.01,,,0.13,WUHU216HW,2013-06-05 23:27:00,
2013-06-05 18:32:00,60.8,54.0,29.91,ESE,113,9.2,11.0,78,0.01,,,0.13,WUHU216HW,2013-06-05 23:32:00,
2013-06-05 18:37:00,60.7,53.8,29.91,East,90,7.8,11.0,78,0.01,,,0.13,WUHU216HW,2013-06-05 23:37:00,
2013-06-05 18:42:00,60.1,53.6,29.91,SE,135,11.4,11.4,79,0.00,,,0.13,WUHU216HW,2013-06-05 23:42:00,
2013-06-05 18:47:00,59.9,53.8,29.90,ESE,113,6.0,11.4,80,0.00,,,0.13,WUHU216HW,2013-06-05 23:47:00,
2013-06-05 18:52:00,59.8,53.6,29.90,ESE,113,9.8,11.4,80,0.00,,,0.13,WUHU216HW,2013-06-05 23:52:00,
2013-06-05 18:57:00,59.4,53.3,29.90,ESE,113,7.4,11.2,80,0.00,,,0.13,WUHU216HW,2013-06-05 23:57:00,
2013-06-05 19:02:00,59.0,53.3,29.90,East,90,7.4,10.5,81,0.00,,,0.13,WUHU216HW,2013-06-06 00:02:00,
2013-06-05 19:07:00,58.9,53.7,29.89,ESE,113,7.4,9.2,83,0.00,,,0.13,WUHU216HW,2013-06-06 00:07:00,
2013-06-05 19:12:00,58.9,53.7,29.90,SE,135,4.0,9.8,83,0.00,,,0.13,WUHU216HW,2013-06-06 00:12:00,
2013-06-05 19:17:00,58.7,53.6,29.90,ESE,113,7.4,9.8,83,0.00,,,0.13,WUHU216HW,2013-06-06 00:17:00,
2013-06-05 19:22:00,58.7,53.8,29.89,SE,135,5.6,9.2,84,0.00,,,0.13,WUHU216HW,2013-06-06 00:22:00,
2013-06-05 19:27:00,58.3,53.8,29.90,ENE,68,6.3,9.2,85,0.00,,,0.13,WUHU216HW,2013-06-06 00:27:00,
2013-06-05 19:32:00,58.3,53.5,29.90,East,90,6.3,9.8,84,0.01,,,0.14,WUHU216HW,2013-06-06 00:32:00,
2013-06-05 19:37:00,58.0,52.5,29.91,ENE,68,7.2,10.3,82,0.01,,,0.14,WUHU216HW,2013-06-06 00:37:00,
2013-06-05 19:42:00,57.6,52.1,29.91,NE,45,6.7,11.4,82,0.01,,,0.14,WUHU216HW,2013-06-06 00:42:00,
2013-06-05 19:47:00,57.2,51.5,29.91,NE,45,7.2,11.4,81,0.01,,,0.14,WUHU216HW,2013-06-06 00:47:00,
2013-06-05 19:52:00,57.1,50.9,29.91,East,90,8.5,10.1,80,0.01,,,0.14,WUHU216HW,2013-06-06 00:52:00,
2013-06-05 19:57:00,56.7,50.6,29.91,ENE,68,7.6,13.0,80,0.01,,,0.14,WUHU216HW,2013-06-06 00:57:00,
2013-06-05 20:02:00,56.5,50.0,29.91,ESE,113,6.0,13.0,79,0.01,,,0.14,WUHU216HW,2013-06-06 01:02:00,
2013-06-05 20:07:00,56.5,50.4,29.91,NE,45,9.6,10.1,80,0.01,,,0.14,WUHU216HW,2013-06-06 01:07:00,
2013-06-05 20:12:00,56.3,49.9,29.91,East,90,8.5,10.1,79,0.01,,,0.14,WUHU216HW,2013-06-06 01:12:00,
2013-06-05 20:17:00,56.3,49.9,29.92,ENE,68,4.3,9.6,79,0.01,,,0.14,WUHU216HW,2013-06-06 01:17:00,
2013-06-05 20:22:00,56.2,49.7,29.92,ENE,68,6.0,8.5,79,0.01,,,0.14,WUHU216HW,2013-06-06 01:22:00,
2013-06-05 20:27:00,56.0,49.9,29.92,ENE,68,4.0,10.1,80,0.01,,,0.14,WUHU216HW,2013-06-06 01:27:00,
2013-06-05 20:32:00,55.8,50.1,29.92,ENE,68,4.3,10.1,81,0.00,,,0.14,WUHU216HW,2013-06-06 01:32:00,
2013-06-05 20:37:00,55.6,49.5,29.92,ENE,68,5.8,8.1,80,0.00,,,0.14,WUHU216HW,2013-06-06 01:37:00,
2013-06-05 20:42:00,55.6,49.9,29.92,East,90,6.9,8.1,81,0.00,,,0.14,WUHU216HW,2013-06-06 01:42:00,
2013-06-05 20:47:00,55.4,49.3,29.92,ENE,68,5.4,6.9,80,0.00,,,0.14,WUHU216HW,2013-06-06 01:47:00,
2013-06-05 20:52:00,55.3,49.1,29.92,NE,45,6.9,8.7,80,0.01,,,0.15,WUHU216HW,2013-06-06 01:52:00,
2013-06-05 20:57:00,55.3,49.1,29.93,ENE,68,4.0,8.7,80,0.01,,,0.15,WUHU216HW,2013-06-06 01:57:00,
2013-06-05 21:02:00,55.1,49.0,29.92,East,90,4.5,7.2,80,0.01,,,0.15,WUHU216HW,2013-06-06 02:02:00,
2013-06-05 21:07:00,55.1,49.0,29.93,East,90,3.4,6.9,80,0.01,,,0.15,WUHU216HW,2013-06-06 02:07:00,
2013-06-05 21:12:00,55.1,49.0,29.93,East,90,2.5,6.9,80,0.01,,,0.15,WUHU216HW,2013-06-06 02:12:00,
2013-06-05 21:17:00,55.1,49.3,29.93,East,90,5.4,6.5,81,0.01,,,0.15,WUHU216HW,2013-06-06 02:17:00,
2013-06-05 21:22:00,55.1,49.3,29.93,ESE,113,3.8,6.5,81,0.01,,,0.15,WUHU216HW,2013-06-06 02:22:00,
2013-06-05 21:27:00,54.9,49.1,29.94,ESE,113,2.7,6.5,81,0.01,,,0.15,WUHU216HW,2013-06-06 02:27:00,
2013-06-05 21:32:00,54.9,49.1,29.94,SE,135,6.3,7.2,81,0.01,,,0.15,WUHU216HW,2013-06-06 02:32:00,
2013-06-05 21:37:00,54.9,49.1,29.94,ESE,113,4.5,7.2,81,0.01,,,0.15,WUHU216HW,2013-06-06 02:37:00,
2013-06-05 21:42:00,54.9,49.1,29.93,ESE,113,3.1,8.1,81,0.01,,,0.15,WUHU216HW,2013-06-06 02:42:00,
2013-06-05 21:47:00,54.9,49.1,29.94,SE,135,4.3,8.1,81,0.01,,,0.15,WUHU216HW,2013-06-06 02:47:00,
2013-06-05 21:52:00,54.7,49.0,29.93,SE,135,5.4,6.5,81,0.00,,,0.15,WUHU216HW,2013-06-06 02:52:00,
2013-06-05 21:57:00,54.7,48.7,29.93,ESE,113,4.5,6.9,80,0.00,,,0.15,WUHU216HW,2013-06-06 02:57:00,
2013-06-05 22:02:00,54.5,48.9,29.93,SE,135,5.1,6.9,81,0.00,,,0.15,WUHU216HW,2013-06-06 03:02:00,
2013-06-05 22:07:00,54.5,48.9,29.93,ESE,113,7.4,7.8,81,0.00,,,0.15,WUHU216HW,2013-06-06 03:07:00,
2013-06-05 22:12:00,54.5,48.9,29.93,SSE,158,6.0,9.2,81,0.00,,,0.15,WUHU216HW,2013-06-06 03:12:00,
2013-06-05 22:17:00,54.5,48.9,29.92,ESE,113,7.2,10.5,81,0.00,,,0.15,WUHU216HW,2013-06-06 03:17:00,
2013-06-05 22:22:00,54.4,48.7,29.92,ESE,113,7.4,10.5,81,0.01,,,0.16,WUHU216HW,2013-06-06 03:22:00,
2013-06-05 22:27:00,54.4,48.7,29.92,East,90,7.6,10.5,81,0.01,,,0.16,WUHU216HW,2013-06-06 03:27:00,
2013-06-05 22:32:00,54.4,48.7,29.92,ESE,113,9.2,10.3,81,0.01,,,0.16,WUHU216HW,2013-06-06 03:32:00,
2013-06-05 22:37:00,54.4,49.0,29.92,SE,135,8.5,10.3,82,0.01,,,0.16,WUHU216HW,2013-06-06 03:37:00,
2013-06-05 22:42:00,54.4,48.7,29.92,ESE,113,5.4,9.8,81,0.01,,,0.16,WUHU216HW,2013-06-06 03:42:00,
2013-06-05 22:47:00,54.2,48.5,29.92,ESE,113,6.3,9.8,81,0.01,,,0.16,WUHU216HW,2013-06-06 03:47:00,
2013-06-05 22:52:00,54.4,48.7,29.92,ESE,113,5.6,8.1,81,0.01,,,0.16,WUHU216HW,2013-06-06 03:52:00,
2013-06-05 22:57:00,54.4,49.0,29.92,SE,135,7.8,8.9,82,0.01,,,0.16,WUHU216HW,2013-06-06 03:57:00,
2013-06-05 23:01:00,54.4,48.7,29.91,ESE,113,5.4,8.9,81,0.01,,,0.16,WUHU216HW,2013-06-06 04:01:00,
2013-06-05 23:06:00,54.4,48.7,29.91,ESE,113,3.6,8.9,81,0.01,,,0.16,WUHU216HW,2013-06-06 04:06:00,
2013-06-05 23:11:00,54.4,48.7,29.91,SE,135,9.2,9.2,81,0.01,,,0.16,WUHU216HW,2013-06-06 04:11:00,
2013-06-05 23:16:00,54.2,48.5,29.91,ESE,113,6.9,10.3,81,0.01,,,0.16,WUHU216HW,2013-06-06 04:16:00,
2013-06-05 23:21:00,54.2,48.5,29.91,SE,135,10.7,10.7,81,0.00,,,0.16,WUHU216HW,2013-06-06 04:21:00,
2013-06-05 23:26:00,54.2,48.5,29.91,ESE,113,5.4,10.7,81,0.00,,,0.16,WUHU216HW,2013-06-06 04:26:00,
2013-06-05 23:31:00,54.2,48.5,29.91,SE,135,8.1,10.7,81,0.00,,,0.16,WUHU216HW,2013-06-06 04:31:00,
2013-06-05 23:36:00,54.2,48.5,29.91,ESE,113,5.6,9.4,81,0.00,,,0.16,WUHU216HW,2013-06-06 04:36:00,
2013-06-05 23:41:00,54.2,48.5,29.91,SE,135,6.0,8.5,81,0.00,,,0.16,WUHU216HW,2013-06-06 04:41:00,
2013-06-05 23:46:00,54.2,48.5,29.91,SE,135,6.3,8.5,81,0.00,,,0.16,WUHU216HW,2013-06-06 04:46:00,
2013-06-05 23:51:00,54.2,48.5,29.91,SE,135,5.6,7.6,81,0.00,,,0.16,WUHU216HW,2013-06-06 04:51:00,
2013-06-05 23:56:00,54.2,48.2,29.91,SE,135,5.4,7.6,80,0.00,,,0.16,WUHU216HW,2013-06-06 04:56:00,